THOR ABLESTAR DEB, 1435

Orbit data source: Space-Track

THOR ABLESTAR DEB, 1435 is space debris in LEO originally from a launch on Thu, 24 Jun 1965 UTC launched from the Air Force Western Test Range (AFWTR). Debris objects in space refer to the collection of defunct objects orbiting the Earth. Examples of debris include non-operational satellites, rocket bodies, and fragments generated from explosions, collisions, or faulty payload assembly.

Loading next visibility...
Identifier
1435, 1965-048D
Orbit
LEO
Country
Flag of USUS
Related business
Manufacturer
Unknown
Mission
Spacecraft
Bus & Motor
Unknown
Mass
Unknown
Launch date (UTC)
Icon of a cake. It is the launch day of the satellite!1965-06-24 (61 years ago)
Launch vehicle
Unknown
Launch site
Air Force Western Test Range (AFWTR)
Object type
Payload
Rocket body
Debris
Shape & HBR
Unknown shape, 0.1 m
Radar Cross Section
Medium (>0.1 m² and <1 m²)

Expand to show TLE details & history
Last TLE update: 17 hours ago

TLE from 17 hours ago
0 THOR ABLESTAR DEB
1 01435U 65048D   26174.55505759  .00000548  00000-0  57397-3 0  9998
2 01435  89.8806 289.9280 0054327 296.1958  79.9273 13.73357065 27762
Epoch: 2026-06-23T13:19Z
TLE epoch observation values (Epoch: 2026-06-23T13:19:16.975Z)
Latitude
16.71993°
Longitude
178.41801°
Altitude
983.115 km
Speed
7.365 km/s
True Right ascension
19h 19m 51s
True Declination
16° 37' 42"
Sunlit
Object was in full shadow at epoch
Visualization orbit readout
Latitude
Unknown
Longitude
Unknown
Altitude
Unknown
Speed
Unknown
Apparent Right ascension
Unknown
Apparent Declination
Unknown
Sunlit
N/A
Visualization observer readout
Local Sidereal Time
17:53:18
Azimuth
Unknown
Elevation
Unknown
Doppler factor
Unknown
Orbital elements
Apogee altitude
1,024.558 km
Perigee altitude
944.56 km
Semi-major axis
7,362.696 km
Eccentricity
0.00543
Inclination
89.8806°
RAAN
289.928°
Arg. of periapsis
296.1958°
True anomaly
80.54096°
Mean anomaly
79.9273°
Eccentric anomaly
80.23406°
Mean motion
3.43548 °/min
Orbital period
104.79 mins
BSTAR
0.00057397
Loading maneuver chart data...
Computing Atmospheric mass density...

Documentation

Showing up to 5 results
|